User: anonymous
Location: Caltech
(34.1382°N, 118.1253°W)
Time: 18:50:59
(UTC-07:00)
Language:

NOAA 19 - Orbit

View from above orbital plane
View from above orbital plane
View from above satellite
View from above satellite

Ground track
Ground track

The orbit data is extracted from the following two-line orbital elements,

1 33591U 09005A   14203.08458998  .00000009  00000-0  29622-4 0  3129
2 33591 098.9461 148.0206 0014424 025.9320 102.3322 14.11739414280915
Epoch (UTC): 22 July 2014 02:01:48
Eccentricity: 0.0014424
inclination: 98.9461°
perigee height: 843 km
apogee height: 864 km
right ascension of ascending node: 148.0206°
argument of perigee: 25.9320°
revolutions per day: 14.11739414
mean anomaly at epoch: 102.3322°
orbit number at epoch: 28091

The dashed part of the orbit path shows where the satellite is in the earth's shadow,  

DLR